sat.trackr.live / text

‹ back to catalog

ONEWEB-0608

NORAD 54672 · 2022-166AG

PAYLOAD ACTIVE UNKNOWN

§ Identity

Operator
Country
UK
Launch date
2022-12-08
Launch site
AFETR
Launch vehicle
Mass (kg)
RCS (m²)

Purposes: comms

External: N2YO · Heavens-Above · Gunter

§ Orbital elements

Epoch: 2026-05-25T01:05:31.746048Z

Period
108.94 min
Inclination
87.9263°
Eccentricity
0.0002504
Mean motion
13.21823880 rev/d
Perigee alt
1,175.9 km
Apogee alt
1,179.7 km
Semi-major
7,555.9 km
B*
-3.3943e-5
RAAN
248.5694°
Arg perigee
98.2760°
Mean anomaly
261.8658°
Rev number
16,849

§ Raw data

ONEWEB-06081 54672U 22166AG  26145.04550632 -.00000001  00000+0 -33943-4 0  99922 54672  87.9263 248.5694 0002504  98.2760 261.8658 13.21823880168492

JSON: /api/v1/satellites/54672 · /tle

For live sub-satellite position, see the globe view (requires WebGL).

§ Visibility from observer

Set your observer location to see the next 7 days of passes ≥ 10°. The values pass through the URL so the page stays shareable.

No JS? Fill the form by hand. The geolocation button needs JavaScript.